DECAYED

STARLINK-1136, 45089 (Decayed)

Orbit data source: Space-Track

STARLINK-1136, 45089 was a payload satellite owned by SpaceX/Seattle (US) in LEO that was launched on Wed, 29 Jan 2020 UTC via an FALCON 9 launch vehicle from the Air Force Eastern Test Range (AFETR). Payload-class satellites include a variety of spacecraft equipped with specific instruments for various scientific and technological missions. These include communications satellites like Starlink; space stations such as the ISS; scientific satellites like the Hubble; Earth observation satellites from companies like Planet Labs, Umbra, and HawkEye 360; GPS; miniature CubeSats for education and research; and military/defense satellites.

Not visible in the next 10 days
Identifier
45089, 2020-006AX
Orbit
Decayed
Country
Flag of USUS
Related business
Manufacturer
SpaceX/Seattle
Mission
Decayed Commercial Communications
Bus & Motor
STARLINK, Unknown motor
Mass
260 kg wet, ~248 kg dry
Launch date (UTC)
2020-01-29 (6 years ago)
Launch vehicle
FALCON 9
Launch site
Air Force Eastern Test Range (AFETR)
Object type
Payload
Rocket body
Debris
Shape & HBR
Box + 1 Pan, 10.1 m
Radar Cross Section
13.562 m², Large (>1 m²)

Expand to show TLE details & history
Last TLE update: 9 months ago

TLE from 9 months ago
0 STARLINK-1136
1 45089U 20006AX  25016.81783833  .16258331  12510-4  27905-3 0  9997
2 45089  53.0279 284.4615 0005226 223.6968 252.8921 16.47631955274655
Epoch: 2025-01-16T19:37Z
TLE epoch observation values (Epoch: 2025-01-16T19:37:41.231Z)
Latitude
45.77558°
Longitude
3.28599°
Altitude
151.389 km
Speed
7.821 km/s
True Right ascension
03h 36m 47s
True Declination
45° 35' 16"
Sunlit
Object was in full shadow at epoch
Visualization orbit readout
Latitude
Unknown
Longitude
Unknown
Altitude
Unknown
Speed
Unknown
Apparent Right ascension
Unknown
Apparent Declination
Unknown
Sunlit
N/A
Visualization observer readout
Local Sidereal Time
06:25:23
Azimuth
Unknown
Elevation
Unknown
Doppler factor
Unknown
Orbital elements
Apogee altitude
149.28 km
Perigee altitude
142.461 km
Semi-major axis
6,524.007 km
Eccentricity
0.00052
Inclination
53.0279°
RAAN
284.4615°
Arg. of periapsis
223.6968°
True anomaly
252.83488°
Mean anomaly
252.8921°
Eccentric anomaly
252.86349°
Mean motion
4.11881 °/min
Orbital period
87.4 mins
BSTAR
0.00027905
Loading maneuver chart data...
Computing Atmospheric mass density...

Documentation

Showing up to 5 results
|